Location: Unspecified
(0.0000°N, 0.0000°E)
Time: 22:49:49
(UTC+00:00)

S-56A Canister/Altair - Pass Details

Date: 15 December 2018
Orbit: 633 x 2500 km, 38.9° (Epoch: 18 January)

Event Time Altitude Azimuth Distance (km) Brightness Sun altitude
Rises 01:01:08 0° 261° (W) 3,432 - -61.7°
Reaches altitude 10° 01:03:48 10° 275° (W) 2,698 - -61.4°
Maximum altitude 01:09:05 25° 329° (NNW) 2,196 - -60.6°
Drops below altitude 10° 01:16:16 10° 21° (NNE) 3,746 - -59.5°
Sets 01:20:48 0° 32° (NNE) 5,091 - -58.8°
